,,Stat6,,Stat2,,Stat8,,Stat9,,Stat10,,Wind1,,Wind1,
time,status,PA1M_AVG,status,PR1M_SUM,status,RH1M_AVG,status,SR1M_AVG,status,TA1M_AVG,status,W1dAve1m,status,W1sAve1m,
2008-06-03, 00:00:00,VALID,917.675,VALID,0,VALID,100,VALID,0.0679233,VALID,19.6392,VALID,167,VALID,0,
2008-06-03, 00:01:00,VALID,917.669,VALID,0,VALID,100,VALID,0,VALID,19.6394,VALID,167,VALID,0,
2008-06-03, 00:02:00,VALID,917.668,VALID,0,VALID,100,VALID,0.0339617,VALID,19.6394,VALID,167,VALID,0,
2008-06-03, 00:03:00,VALID,917.669,VALID,0,VALID,100,VALID,0.0339617,VALID,19.6234,VALID,167,VALID,0,
2008-06-03, 00:04:00,VALID,917.657,VALID,0,VALID,100,VALID,0.0169808,VALID,19.6334,VALID,167,VALID,0,
2008-06-03, 00:05:00,VALID,917.666,VALID,0,VALID,100,VALID,0,VALID,19.6005,VALID,167,VALID,0,
2008-06-03, 00:06:00,VALID,917.666,VALID,0,VALID,100,VALID,0.0169808,VALID,19.581,VALID,167,VALID,0,
2008-06-03, 00:07:00,VALID,917.674,VALID,0,VALID,100,VALID,0.0509425,VALID,19.5618,VALID,167,VALID,0,
2008-06-03, 00:08:00,VALID,917.659,VALID,0,VALID,100,VALID,-0.0509425,VALID,19.5204,VALID,167,VALID,0,
2008-06-03, 00:09:00,VALID,917.663,VALID,0,VALID,100,VALID,-0.101885,VALID,19.4949,VALID,167,VALID,0,
2008-06-03, 00:10:00,VALID,917.654,VALID,0,VALID,100,VALID,-0.0849042,VALID,19.4792,VALID,167,VALID,0,
2008-06-03, 00:11:00,VALID,917.633,VALID,0,VALID,100,VALID,-0.0679233,VALID,19.4757,VALID,167,VALID,0,
2008-06-03, 00:12:00,VALID,917.62,VALID,0,VALID,100,VALID,-0.0339617,VALID,19.4849,VALID,167,VALID,0,
2008-06-03, 00:13:00,VALID,917.606,VALID,0,VALID,100,VALID,-0.0169808,VALID,19.5109,VALID,167,VALID,0,
2008-06-03, 00:14:00,VALID,917.593,VALID,0,VALID,100,VALID,-0.0339617,VALID,19.5341,VALID,167,VALID,0,
2008-06-03, 00:15:00,VALID,917.586,VALID,0,VALID,100,VALID,-0.0339617,VALID,19.5436,VALID,167,VALID,0,
2008-06-03, 00:16:00,VALID,917.572,VALID,0,VALID,100,VALID,-0.0169808,VALID,19.5561,VALID,167,VALID,0,
2008-06-03, 00:17:00,VALID,917.558,VALID,0,VALID,100,VALID,-0.0169808,VALID,19.5266,VALID,167,VALID,0,
2008-06-03, 00:18:00,VALID,917.548,VALID,0,VALID,100,VALID,-0.0169808,VALID,19.5109,VALID,167,VALID,0,
2008-06-03, 00:19:00,VALID,917.535,VALID,0,VALID,100,VALID,-0.0339617,VALID,19.5011,VALID,167,VALID,0,
2008-06-03, 00:20:00,VALID,917.526,VALID,0,VALID,100,VALID,-0.0339617,VALID,19.4981,VALID,167,VALID,0,
2008-06-03, 00:21:00,VALID,917.516,VALID,0,VALID,100,VALID,-0.0339617,VALID,19.4787,VALID,167,VALID,0,
2008-06-03, 00:22:00,VALID,917.507,VALID,0,VALID,100,VALID,-0.0339617,VALID,19.4884,VALID,150,VALID,0,
2008-06-03, 00:23:00,VALID,917.498,VALID,0,VALID,100,VALID,-0.0509425,VALID,19.4974,VALID,143,VALID,0,
2008-06-03, 00:24:00,VALID,917.505,VALID,0,VALID,100,VALID,-0.0169808,VALID,19.5273,VALID,136,VALID,0,
2008-06-03, 00:25:00,VALID,917.502,VALID,0,VALID,100,VALID,-0.0169808,VALID,19.5139,VALID,125,VALID,0,
2008-06-03, 00:26:00,VALID,917.504,VALID,0,VALID,100,VALID,-0.0169808,VALID,19.4977,VALID,91,VALID,0,
2008-06-03, 00:27:00,VALID,917.485,VALID,0,VALID,100,VALID,0,VALID,19.5009,VALID,77,VALID,0,
2008-06-03, 00:28:00,VALID,917.47,VALID,0,VALID,100,VALID,-0.0169808,VALID,19.5074,VALID,82,VALID,0,
2008-06-03, 00:29:00,VALID,917.456,VALID,0,VALID,100,VALID,-0.0509425,VALID,19.5011,VALID,84,VALID,0,
2008-06-03, 00:30:00,VALID,917.438,VALID,0,VALID,100,VALID,-0.0509425,VALID,19.4947,VALID,87,VALID,0,
2008-06-03, 00:31:00,VALID,917.424,VALID,0,VALID,100,VALID,-0.0679233,VALID,19.5014,VALID,87,VALID,0,
2008-06-03, 00:32:00,VALID,917.415,VALID,0,VALID,100,VALID,-0.0509425,VALID,19.5111,VALID,87,VALID,0,
2008-06-03, 00:33:00,VALID,917.413,VALID,0,VALID,100,VALID,-0.0339617,VALID,19.5176,VALID,88,VALID,0,
2008-06-03, 00:34:00,VALID,917.409,VALID,0,VALID,100,VALID,-0.0339617,VALID,19.5368,VALID,89,VALID,0,
2008-06-03, 00:35:00,VALID,917.426,VALID,0,VALID,100,VALID,-0.0169808,VALID,19.5563,VALID,104,VALID,0,
2008-06-03, 00:36:00,VALID,917.41,VALID,0,VALID,100,VALID,-0.0169808,VALID,19.5493,VALID,120,VALID,0,
2008-06-03, 00:37:00,VALID,917.396,VALID,0,VALID,100,VALID,-0.0509425,VALID,19.5561,VALID,128,VALID,0,
2008-06-03, 00:38:00,VALID,917.395,VALID,0,VALID,100,VALID,0,VALID,19.566,VALID,128,VALID,0,
2008-06-03, 00:39:00,VALID,917.368,VALID,0,VALID,100,VALID,-0.0169808,VALID,19.5825,VALID,128,VALID,0,
2008-06-03, 00:40:00,VALID,917.369,VALID,0,VALID,100,VALID,0,VALID,19.5855,VALID,128,VALID,0,
2008-06-03, 00:41:00,VALID,917.36,VALID,0,VALID,100,VALID,-0.0169808,VALID,19.5785,VALID,128,VALID,0,
2008-06-03, 00:42:00,VALID,917.351,VALID,0,VALID,100,VALID,-0.0169808,VALID,19.5758,VALID,128,VALID,0,
2008-06-03, 00:43:00,VALID,917.346,VALID,0,VALID,100,VALID,0,VALID,19.5688,VALID,128,VALID,0,
2008-06-03, 00:44:00,VALID,917.347,VALID,0,VALID,100,VALID,-0.0169808,VALID,19.5663,VALID,128,VALID,0,
2008-06-03, 00:45:00,VALID,917.341,VALID,0,VALID,100,VALID,-0.0339617,VALID,19.576,VALID,128,VALID,0,
2008-06-03, 00:46:00,VALID,917.332,VALID,0,VALID,100,VALID,-0.0169808,VALID,19.5825,VALID,128,VALID,0,
2008-06-03, 00:47:00,VALID,917.314,VALID,0,VALID,100,VALID,-0.0509425,VALID,19.5887,VALID,131,VALID,0,
2008-06-03, 00:48:00,VALID,917.296,VALID,0,VALID,100,VALID,-0.0169808,VALID,19.602,VALID,139,VALID,0,
2008-06-03, 00:49:00,VALID,917.276,VALID,0,VALID,100,VALID,-0.0509425,VALID,19.6247,VALID,141,VALID,0,
2008-06-03, 00:50:00,VALID,917.25,VALID,0,VALID,100,VALID,0,VALID,19.6374,VALID,159,VALID,0,
2008-06-03, 00:51:00,VALID,917.242,VALID,0,VALID,100,VALID,0,VALID,19.6339,VALID,154,VALID,0,
2008-06-03, 00:52:00,VALID,917.235,VALID,0,VALID,100,VALID,-0.0339617,VALID,19.6374,VALID,154,VALID,0,
2008-06-03, 00:53:00,VALID,917.231,VALID,0,VALID,100,VALID,-0.0679233,VALID,19.6479,VALID,152,VALID,0,
2008-06-03, 00:54:00,VALID,917.226,VALID,0,VALID,100,VALID,0,VALID,19.6404,VALID,143,VALID,0,
2008-06-03, 00:55:00,VALID,917.235,VALID,0,VALID,100,VALID,-0.0169808,VALID,19.6474,VALID,142,VALID,0,
2008-06-03, 00:56:00,VALID,917.216,VALID,0,VALID,100,VALID,0,VALID,19.6571,VALID,141,VALID,0.0355114,
2008-06-03, 00:57:00,VALID,917.219,VALID,0,VALID,100,VALID,-0.0509425,VALID,19.6639,VALID,133,VALID,0,
2008-06-03, 00:58:00,VALID,917.212,VALID,0,VALID,100,VALID,0,VALID,19.6634,VALID,133,VALID,0,
2008-06-03, 00:59:00,VALID,917.201,VALID,0,VALID,100,VALID,-0.0339617,VALID,19.6731,VALID,133,VALID,0,
2008-06-03, 01:00:00,VALID,917.156,VALID,0,VALID,100,VALID,0,VALID,19.6766,VALID,134,VALID,0.0314453,
2008-06-03, 01:01:00,VALID,917.136,VALID,0,VALID,100,VALID,0,VALID,19.6863,VALID,135,VALID,0.176482,
2008-06-03, 01:02:00,VALID,917.122,VALID,0,VALID,100,VALID,-0.0679233,VALID,19.7058,VALID,135,VALID,0.122904,
2008-06-03, 01:03:00,VALID,917.089,VALID,0,VALID,100,VALID,-0.0679233,VALID,19.722,VALID,135,VALID,0.174716,
2008-06-03, 01:04:00,VALID,917.084,VALID,0,VALID,100,VALID,-0.0679233,VALID,19.7322,VALID,136,VALID,0.175114,
2008-06-03, 01:05:00,VALID,917.052,VALID,0,VALID,100,VALID,-0.0339617,VALID,19.7315,VALID,154,VALID,0.709302,
2008-06-03, 01:06:00,VALID,917.044,VALID,0,VALID,100,VALID,-0.0509425,VALID,19.7415,VALID,155,VALID,0.541797,
2008-06-03, 01:07:00,VALID,917.05,VALID,0,VALID,100,VALID,-0.0509425,VALID,19.7582,VALID,156,VALID,0.643787,
2008-06-03, 01:08:00,VALID,917.035,VALID,0,VALID,100,VALID,0,VALID,19.7537,VALID,156,VALID,0.44122,
2008-06-03, 01:09:00,VALID,917.049,VALID,0,VALID,100,VALID,0.0679233,VALID,19.7629,VALID,156,VALID,0,
2008-06-03, 01:10:00,VALID,917.054,VALID,0,VALID,100,VALID,0.0339617,VALID,19.756,VALID,157,VALID,0.386161,
2008-06-03, 01:11:00,VALID,917.055,VALID,0,VALID,100,VALID,0.0339617,VALID,19.7694,VALID,158,VALID,0.0907315,
2008-06-03, 01:12:00,VALID,917.051,VALID,0,VALID,100,VALID,0,VALID,19.7824,VALID,158,VALID,0,
2008-06-03, 01:13:00,VALID,917.052,VALID,0,VALID,100,VALID,0.0339617,VALID,19.7924,VALID,158,VALID,0,
2008-06-03, 01:14:00,VALID,917.045,VALID,0,VALID,100,VALID,0.0339617,VALID,19.8021,VALID,158,VALID,0,
2008-06-03, 01:15:00,VALID,917.047,VALID,0,VALID,100,VALID,0.0339617,VALID,19.7986,VALID,158,VALID,0,
2008-06-03, 01:16:00,VALID,917.039,VALID,0,VALID,100,VALID,0.0509425,VALID,19.8179,VALID,158,VALID,0,
2008-06-03, 01:17:00,VALID,917.038,VALID,0,VALID,100,VALID,0.0339617,VALID,19.8114,VALID,158,VALID,0,
2008-06-03, 01:18:00,VALID,917.038,VALID,0,VALID,100,VALID,0.0509425,VALID,19.8146,VALID,158,VALID,0,
2008-06-03, 01:19:00,VALID,917.028,VALID,0,VALID,100,VALID,0.0679233,VALID,19.8308,VALID,88,VALID,0,
2008-06-03, 01:20:00,VALID,917.012,VALID,0,VALID,100,VALID,0.0509425,VALID,19.8308,VALID,78,VALID,0,
2008-06-03, 01:21:00,VALID,916.994,VALID,0,VALID,100,VALID,0.0339617,VALID,19.8411,VALID,78,VALID,0,
2008-06-03, 01:22:00,VALID,916.983,VALID,0,VALID,100,VALID,0.0169808,VALID,19.8318,VALID,78,VALID,0,
2008-06-03, 01:23:00,VALID,916.966,VALID,0,VALID,100,VALID,-0.0509425,VALID,19.8258,VALID,78,VALID,0,
2008-06-03, 01:24:00,VALID,916.96,VALID,0,VALID,100,VALID,-0.0849042,VALID,19.8326,VALID,91,VALID,0,
2008-06-03, 01:25:00,VALID,916.944,VALID,0,VALID,100,VALID,-0.0509425,VALID,19.8356,VALID,94,VALID,0,
2008-06-03, 01:26:01,VALID,916.928,VALID,0,VALID,100,VALID,0,VALID,19.8291,VALID,96,VALID,0,
2008-06-03, 01:27:01,VALID,916.909,VALID,0,VALID,100,VALID,-0.0509425,VALID,19.8421,VALID,99,VALID,0,
2008-06-03, 01:28:00,VALID,916.888,VALID,0,VALID,100,VALID,-0.0509425,VALID,19.855,VALID,115,VALID,0,
2008-06-03, 01:29:00,VALID,916.867,VALID,0,VALID,100,VALID,-0.0169808,VALID,19.855,VALID,118,VALID,0,
2008-06-03, 01:30:00,VALID,916.85,VALID,0,VALID,100,VALID,-0.0169808,VALID,19.865,VALID,118,VALID,0,
2008-06-03, 01:31:00,VALID,916.824,VALID,0,VALID,100,VALID,-0.0849042,VALID,19.8585,VALID,134,VALID,0.399709,
2008-06-03, 01:32:00,VALID,916.807,VALID,0,VALID,100,VALID,-0.0679233,VALID,19.862,VALID,145,VALID,0.828125,
2008-06-03, 01:33:00,VALID,916.795,VALID,0,VALID,100,VALID,-0.0339617,VALID,19.8488,VALID,158,VALID,1.19716,
2008-06-03, 01:34:00,VALID,916.779,VALID,0,VALID,100,VALID,-0.0679233,VALID,19.8323,VALID,155,VALID,1.11452,
2008-06-03, 01:35:00,VALID,916.781,VALID,0,VALID,100,VALID,-0.0849042,VALID,19.8164,VALID,153,VALID,0.763765,
2008-06-03, 01:36:01,VALID,916.773,VALID,0,VALID,100,VALID,-0.101885,VALID,19.8004,VALID,150,VALID,0.385861,
2008-06-03, 01:37:00,VALID,916.784,VALID,0,VALID,100,VALID,-0.0509425,VALID,19.761,VALID,151,VALID,0.919085,
2008-06-03, 01:38:01,VALID,916.761,VALID,0,VALID,100,VALID,0,VALID,19.7445,VALID,147,VALID,1.02592,
2008-06-03, 01:39:00,VALID,916.759,VALID,0,VALID,100,VALID,0,VALID,19.7275,VALID,133,VALID,0.725229,
2008-06-03, 01:40:01,VALID,916.748,VALID,0,VALID,100,VALID,0,VALID,19.7245,VALID,147,VALID,0.777158,
2008-06-03, 01:41:01,VALID,916.743,VALID,0,VALID,100,VALID,-0.0339617,VALID,19.7115,VALID,151,VALID,0.986632,
2008-06-03, 01:42:01,VALID,916.73,VALID,0,VALID,100,VALID,0,VALID,19.7048,VALID,155,VALID,0.850074,
2008-06-03, 01:43:00,VALID,916.725,VALID,0,VALID,100,VALID,0,VALID,19.7078,VALID,150,VALID,0.914971,
2008-06-03, 01:44:00,VALID,916.723,VALID,0,VALID,100,VALID,0,VALID,19.7045,VALID,150,VALID,0.993304,
2008-06-03, 01:45:01,VALID,916.733,VALID,0,VALID,100,VALID,0,VALID,19.7045,VALID,146,VALID,0.944271,
2008-06-03, 01:46:00,VALID,916.723,VALID,0,VALID,100,VALID,0,VALID,19.7113,VALID,138,VALID,0.799079,
2008-06-03, 01:47:01,VALID,916.713,VALID,0,VALID,100,VALID,0.0339617,VALID,19.7205,VALID,146,VALID,1.00056,
2008-06-03, 01:48:00,VALID,916.703,VALID,0,VALID,100,VALID,0.0169808,VALID,19.7375,VALID,122,VALID,0.549132,
2008-06-03, 01:49:01,VALID,916.699,VALID,0,VALID,100,VALID,0,VALID,19.7337,VALID,131,VALID,0.851935,
2008-06-03, 01:50:00,VALID,916.701,VALID,0,VALID,100,VALID,0,VALID,19.7372,VALID,129,VALID,0.971989,
2008-06-03, 01:51:00,VALID,916.714,VALID,0,VALID,100,VALID,-0.0339617,VALID,19.724,VALID,120,VALID,0.820313,
2008-06-03, 01:52:01,VALID,916.704,VALID,0,VALID,100,VALID,0,VALID,19.7275,VALID,123,VALID,0.831555,
2008-06-03, 01:53:00,VALID,916.715,VALID,0,VALID,100,VALID,-0.0679233,VALID,19.7253,VALID,130,VALID,0.479167,
2008-06-03, 01:54:01,VALID,916.696,VALID,0,VALID,100,VALID,-0.0849042,VALID,19.7188,VALID,131,VALID,0.303125,
2008-06-03, 01:55:00,VALID,916.675,VALID,0,VALID,100,VALID,-0.101885,VALID,19.7258,VALID,131,VALID,0.00372869,
2008-06-03, 01:56:01,VALID,916.649,VALID,0,VALID,100,VALID,-0.0849042,VALID,19.7125,VALID,131,VALID,0,
2008-06-03, 01:57:01,VALID,916.632,VALID,0,VALID,100,VALID,-0.118866,VALID,19.7158,VALID,131,VALID,0,
2008-06-03, 01:58:00,VALID,916.61,VALID,0,VALID,100,VALID,-0.0849042,VALID,19.729,VALID,131,VALID,0,
2008-06-03, 01:59:01,VALID,916.596,VALID,0,VALID,100,VALID,-0.118866,VALID,19.7255,VALID,129,VALID,0,
2008-06-03, 02:00:00,VALID,916.582,VALID,0,VALID,100,VALID,-0.0849042,VALID,19.7123,VALID,123,VALID,0,
2008-06-03, 02:01:00,VALID,916.569,VALID,0,VALID,100,VALID,-0.101885,VALID,19.7033,VALID,109,VALID,0.532812,
2008-06-03, 02:02:00,VALID,916.561,VALID,0,VALID,100,VALID,-0.101885,VALID,19.6906,VALID,106,VALID,0.547619,
2008-06-03, 02:03:00,VALID,916.556,VALID,0,VALID,100,VALID,-0.0679233,VALID,19.6639,VALID,105,VALID,0.116832,
2008-06-03, 02:04:00,VALID,916.538,VALID,0,VALID,100,VALID,-0.0679233,VALID,19.6539,VALID,105,VALID,0,
2008-06-03, 02:05:00,VALID,916.522,VALID,0,VALID,100,VALID,-0.0679233,VALID,19.6574,VALID,105,VALID,0,
2008-06-03, 02:06:00,VALID,916.5,VALID,0,VALID,100,VALID,-0.0509425,VALID,19.6766,VALID,105,VALID,0,
2008-06-03, 02:07:00,VALID,916.488,VALID,0,VALID,100,VALID,-0.0849042,VALID,19.6998,VALID,104,VALID,0,
2008-06-03, 02:08:00,VALID,916.473,VALID,0,VALID,100,VALID,-0.0679233,VALID,19.7065,VALID,104,VALID,0,
2008-06-03, 02:09:00,VALID,916.466,VALID,0,VALID,100,VALID,-0.0849042,VALID,19.706,VALID,104,VALID,0,
2008-06-03, 02:10:01,VALID,916.451,VALID,0,VALID,100,VALID,-0.0849042,VALID,19.7095,VALID,103,VALID,0,
2008-06-03, 02:11:01,VALID,916.423,VALID,0,VALID,100,VALID,-0.0339617,VALID,19.6996,VALID,103,VALID,0,
2008-06-03, 02:12:01,VALID,916.394,VALID,0,VALID,100,VALID,-0.0509425,VALID,19.6634,VALID,103,VALID,0,
2008-06-03, 02:13:01,VALID,916.387,VALID,0,VALID,100,VALID,-0.0849042,VALID,19.6412,VALID,102,VALID,0,
2008-06-03, 02:14:01,VALID,916.358,VALID,0,VALID,100,VALID,-0.0849042,VALID,19.6287,VALID,101,VALID,0,
2008-06-03, 02:15:01,VALID,916.346,VALID,0,VALID,100,VALID,-0.0679233,VALID,19.6636,VALID,100,VALID,0,
2008-06-03, 02:16:01,VALID,916.314,VALID,0,VALID,100,VALID,-0.0849042,VALID,19.7023,VALID,99,VALID,0.225,
2008-06-03, 02:17:01,VALID,916.289,VALID,0,VALID,100,VALID,-0.0849042,VALID,19.716,VALID,100,VALID,0.439174,
2008-06-03, 02:18:01,VALID,916.264,VALID,0,VALID,100,VALID,-0.0679233,VALID,19.6993,VALID,113,VALID,0.12936,
2008-06-03, 02:19:01,VALID,916.248,VALID,0,VALID,100,VALID,-0.0339617,VALID,19.6798,VALID,130,VALID,0.507068,
2008-06-03, 02:20:01,VALID,916.223,VALID,0,VALID,100,VALID,-0.0509425,VALID,19.6539,VALID,156,VALID,0.773256,
2008-06-03, 02:21:01,VALID,916.202,VALID,0,VALID,100,VALID,-0.0849042,VALID,19.6149,VALID,167,VALID,0.925872,
2008-06-03, 02:22:01,VALID,916.183,VALID,0,VALID,100,VALID,-0.0509425,VALID,19.5925,VALID,165,VALID,0.179142,
2008-06-03, 02:23:00,VALID,916.177,VALID,0,VALID,100,VALID,-0.0849042,VALID,19.5565,VALID,168,VALID,0,
2008-06-03, 02:24:00,VALID,916.178,VALID,0,VALID,100,VALID,-0.0679233,VALID,19.5433,VALID,173,VALID,0,
2008-06-03, 02:25:00,VALID,916.179,VALID,0,VALID,100,VALID,-0.0849042,VALID,19.5306,VALID,174,VALID,0,
2008-06-03, 02:26:00,VALID,916.182,VALID,0,VALID,100,VALID,-0.135847,VALID,19.5276,VALID,158,VALID,0,
2008-06-03, 02:27:00,VALID,916.177,VALID,0,VALID,100,VALID,-0.101885,VALID,19.5176,VALID,157,VALID,0,
2008-06-03, 02:28:00,VALID,916.176,VALID,0,VALID,100,VALID,-0.0679233,VALID,19.4984,VALID,162,VALID,0,
2008-06-03, 02:29:00,VALID,916.152,VALID,0,VALID,100,VALID,-0.101885,VALID,19.4981,VALID,175,VALID,0,
2008-06-03, 02:30:00,VALID,916.134,VALID,0,VALID,100,VALID,-0.101885,VALID,19.4852,VALID,183,VALID,0,
2008-06-03, 02:31:00,VALID,916.103,VALID,0,VALID,100,VALID,-0.101885,VALID,19.5114,VALID,184,VALID,0,
2008-06-03, 02:32:00,VALID,916.078,VALID,0,VALID,100,VALID,-0.101885,VALID,19.4917,VALID,184,VALID,0,
2008-06-03, 02:33:00,VALID,916.074,VALID,0,VALID,100,VALID,-0.101885,VALID,19.4854,VALID,184,VALID,0,
2008-06-03, 02:34:00,VALID,916.062,VALID,0,VALID,100,VALID,-0.0849042,VALID,19.4627,VALID,184,VALID,0,
2008-06-03, 02:35:00,VALID,916.05,VALID,0,VALID,100,VALID,-0.0849042,VALID,19.443,VALID,184,VALID,0,
2008-06-03, 02:36:00,VALID,916.045,VALID,0,VALID,100,VALID,-0.118866,VALID,19.4595,VALID,184,VALID,0,
2008-06-03, 02:37:00,VALID,916.052,VALID,0,VALID,100,VALID,-0.101885,VALID,19.4984,VALID,184,VALID,0,
2008-06-03, 02:38:00,VALID,916.04,VALID,0,VALID,100,VALID,-0.0849042,VALID,19.4917,VALID,173,VALID,0,
2008-06-03, 02:39:00,VALID,916.068,VALID,0,VALID,100,VALID,-0.101885,VALID,19.4852,VALID,166,VALID,0,
2008-06-03, 02:40:00,VALID,916.069,VALID,0,VALID,100,VALID,-0.0849042,VALID,19.4919,VALID,158,VALID,0,
2008-06-03, 02:41:00,VALID,916.075,VALID,0,VALID,100,VALID,-0.101885,VALID,19.4819,VALID,156,VALID,0,
2008-06-03, 02:42:00,VALID,916.072,VALID,0,VALID,100,VALID,-0.118866,VALID,19.4852,VALID,169,VALID,0,
2008-06-03, 02:43:00,VALID,916.082,VALID,0,VALID,100,VALID,-0.0679233,VALID,19.4884,VALID,176,VALID,0,
2008-06-03, 02:44:00,VALID,916.09,VALID,0,VALID,100,VALID,-0.101885,VALID,19.4919,VALID,169,VALID,0,
2008-06-03, 02:45:00,VALID,916.065,VALID,0,VALID,100,VALID,-0.101885,VALID,19.5081,VALID,172,VALID,0.0216619,
2008-06-03, 02:46:00,VALID,916.049,VALID,0,VALID,100,VALID,-0.101885,VALID,19.5468,VALID,170,VALID,0.170312,
2008-06-03, 02:47:00,VALID,916.01,VALID,0,VALID,100,VALID,-0.0849042,VALID,19.5695,VALID,178,VALID,0.44029,
2008-06-03, 02:48:00,VALID,915.978,VALID,0,VALID,100,VALID,-0.101885,VALID,19.5857,VALID,180,VALID,0.00520833,
2008-06-03, 02:49:00,VALID,915.953,VALID,0,VALID,100,VALID,-0.0849042,VALID,19.576,VALID,181,VALID,0.0276989,
2008-06-03, 02:50:00,VALID,915.932,VALID,0,VALID,100,VALID,-0.101885,VALID,19.5665,VALID,181,VALID,0.532315,
2008-06-03, 02:51:00,VALID,915.905,VALID,0,VALID,100,VALID,-0.101885,VALID,19.5373,VALID,181,VALID,0.0241997,
2008-06-03, 02:52:00,VALID,915.904,VALID,0,VALID,100,VALID,-0.0849042,VALID,19.5211,VALID,181,VALID,0.118902,
2008-06-03, 02:53:00,VALID,915.892,VALID,0,VALID,100,VALID,-0.101885,VALID,19.4981,VALID,181,VALID,0,
2008-06-03, 02:54:00,VALID,915.878,VALID,0,VALID,100,VALID,-0.0679233,VALID,19.4887,VALID,181,VALID,0,
2008-06-03, 02:55:00,VALID,915.849,VALID,0,VALID,100,VALID,-0.0509425,VALID,19.4779,VALID,181,VALID,0,
2008-06-03, 02:56:00,VALID,915.828,VALID,0,VALID,100,VALID,-0.101885,VALID,19.4919,VALID,181,VALID,0,
2008-06-03, 02:57:00,VALID,915.807,VALID,0,VALID,100,VALID,-0.0849042,VALID,19.4981,VALID,181,VALID,0,
2008-06-03, 02:58:00,VALID,915.808,VALID,0,VALID,100,VALID,-0.0849042,VALID,19.4917,VALID,181,VALID,0,
2008-06-03, 02:59:00,VALID,915.805,VALID,0,VALID,100,VALID,-0.101885,VALID,19.4919,VALID,181,VALID,0,
2008-06-03, 03:00:00,VALID,915.812,VALID,0,VALID,100,VALID,-0.0849042,VALID,19.4657,VALID,181,VALID,0,
2008-06-03, 03:01:00,VALID,915.823,VALID,0,VALID,100,VALID,-0.0679233,VALID,19.4462,VALID,181,VALID,0,
2008-06-03, 03:02:00,VALID,915.825,VALID,0,VALID,100,VALID,-0.0509425,VALID,19.3911,VALID,112,VALID,0.382457,
2008-06-03, 03:03:00,VALID,915.826,VALID,0,VALID,100,VALID,-0.0679233,VALID,19.31,VALID,53,VALID,0.716146,
2008-06-03, 03:04:00,VALID,915.825,VALID,0,VALID,100,VALID,-0.0679233,VALID,19.2548,VALID,53,VALID,0.0830305,
2008-06-03, 03:05:00,VALID,915.807,VALID,0,VALID,100,VALID,-0.0679233,VALID,19.2221,VALID,53,VALID,0,
2008-06-03, 03:06:00,VALID,915.797,VALID,0,VALID,100,VALID,-0.0849042,VALID,19.1797,VALID,53,VALID,0,
2008-06-03, 03:07:00,VALID,915.773,VALID,0,VALID,100,VALID,-0.0679233,VALID,19.2027,VALID,53,VALID,0,
2008-06-03, 03:08:00,VALID,915.75,VALID,0,VALID,100,VALID,0,VALID,19.2114,VALID,53,VALID,0,
2008-06-03, 03:09:00,VALID,915.725,VALID,0,VALID,100,VALID,0.0339617,VALID,19.1952,VALID,64,VALID,0,
2008-06-03, 03:10:00,VALID,915.715,VALID,0,VALID,100,VALID,0.0679233,VALID,19.2077,VALID,120,VALID,0,
2008-06-03, 03:11:00,VALID,915.682,VALID,0,VALID,100,VALID,0.0509425,VALID,19.2434,VALID,127,VALID,0,
2008-06-03, 03:12:00,VALID,915.662,VALID,0,VALID,100,VALID,0.0509425,VALID,19.2466,VALID,127,VALID,0,
2008-06-03, 03:13:00,VALID,915.664,VALID,0,VALID,100,VALID,0.0169808,VALID,19.2339,VALID,136,VALID,0,
2008-06-03, 03:14:00,VALID,915.672,VALID,0,VALID,100,VALID,0.0339617,VALID,19.2272,VALID,150,VALID,0,
2008-06-03, 03:15:00,VALID,915.673,VALID,0,VALID,100,VALID,0.0849042,VALID,19.2042,VALID,158,VALID,0.028125,
2008-06-03, 03:16:00,VALID,915.684,VALID,0,VALID,100,VALID,0.0169808,VALID,19.208,VALID,156,VALID,0.109184,
2008-06-03, 03:17:00,VALID,915.688,VALID,0,VALID,100,VALID,0.0509425,VALID,19.2142,VALID,152,VALID,0.48088,
2008-06-03, 03:18:00,VALID,915.697,VALID,0,VALID,100,VALID,0.0679233,VALID,19.2364,VALID,149,VALID,0.409091,
2008-06-03, 03:19:00,VALID,915.721,VALID,0,VALID,100,VALID,0.0169808,VALID,19.2499,VALID,132,VALID,0.406432,
2008-06-03, 03:20:00,VALID,915.741,VALID,0,VALID,100,VALID,0.0509425,VALID,19.2596,VALID,123,VALID,0.185595,
2008-06-03, 03:21:00,VALID,915.785,VALID,0,VALID,100,VALID,0.0509425,VALID,19.2397,VALID,109,VALID,0,
2008-06-03, 03:22:00,VALID,915.815,VALID,0,VALID,100,VALID,0.0509425,VALID,19.2431,VALID,109,VALID,0,
2008-06-03, 03:23:00,VALID,915.837,VALID,0,VALID,100,VALID,-0.0339617,VALID,19.2573,VALID,109,VALID,0,
2008-06-03, 03:24:00,VALID,915.868,VALID,0,VALID,100,VALID,-0.101885,VALID,19.2676,VALID,108,VALID,0,
2008-06-03, 03:25:00,VALID,915.872,VALID,0,VALID,100,VALID,-0.0679233,VALID,19.2873,VALID,108,VALID,0,
2008-06-03, 03:26:00,VALID,915.883,VALID,0,VALID,100,VALID,-0.101885,VALID,19.3132,VALID,108,VALID,0,
2008-06-03, 03:27:00,VALID,915.891,VALID,0,VALID,100,VALID,-0.0679233,VALID,19.3389,VALID,94,VALID,0,
2008-06-03, 03:28:00,VALID,915.918,VALID,0,VALID,100,VALID,-0.0339617,VALID,19.3457,VALID,304,VALID,0,
2008-06-03, 03:29:00,VALID,915.932,VALID,0,VALID,100,VALID,-0.101885,VALID,19.3489,VALID,309,VALID,0.0844494,
2008-06-03, 03:30:00,VALID,915.971,VALID,0,VALID,100,VALID,-0.0509425,VALID,19.3584,VALID,310,VALID,0,
2008-06-03, 03:31:00,VALID,915.998,VALID,0,VALID,100,VALID,-0.0509425,VALID,19.3616,VALID,331,VALID,0.00093006,
2008-06-03, 03:32:00,VALID,916.021,VALID,0,VALID,100,VALID,-0.0339617,VALID,19.3519,VALID,349,VALID,0,
2008-06-03, 03:33:00,VALID,916.042,VALID,0,VALID,100,VALID,-0.101885,VALID,19.3554,VALID,349,VALID,0,
2008-06-03, 03:34:00,VALID,916.055,VALID,0,VALID,100,VALID,-0.0679233,VALID,19.3781,VALID,348,VALID,0,
2008-06-03, 03:35:00,VALID,916.069,VALID,0,VALID,100,VALID,-0.0679233,VALID,19.3973,VALID,348,VALID,0,
2008-06-03, 03:36:00,VALID,916.076,VALID,0,VALID,100,VALID,-0.0509425,VALID,19.4203,VALID,347,VALID,0,
2008-06-03, 03:37:00,VALID,916.062,VALID,0,VALID,100,VALID,-0.101885,VALID,19.4235,VALID,347,VALID,0,
2008-06-03, 03:38:00,VALID,916.055,VALID,0,VALID,100,VALID,-0.0849042,VALID,19.436,VALID,347,VALID,0,
2008-06-03, 03:39:00,VALID,916.05,VALID,0,VALID,100,VALID,-0.0169808,VALID,19.446,VALID,347,VALID,0,
2008-06-03, 03:40:00,VALID,916.044,VALID,0,VALID,100,VALID,-0.0339617,VALID,19.4525,INVALID,360,VALID,0,
2008-06-03, 03:41:00,VALID,916.041,VALID,0,VALID,100,VALID,0,VALID,19.4323,INVALID,360,VALID,0,
2008-06-03, 03:42:00,VALID,916.046,VALID,0,VALID,100,VALID,-0.0169808,VALID,19.4263,INVALID,360,VALID,0,
2008-06-03, 03:43:00,VALID,916.05,VALID,0,VALID,100,VALID,0,VALID,19.4228,VALID,347,VALID,0,
2008-06-03, 03:44:00,VALID,916.046,VALID,0,VALID,100,VALID,-0.0339617,VALID,19.4462,INVALID,360,VALID,0,
2008-06-03, 03:45:00,VALID,916.037,VALID,0,VALID,100,VALID,-0.0339617,VALID,19.446,VALID,347,VALID,0,
2008-06-03, 03:46:00,VALID,916.038,VALID,0,VALID,100,VALID,-0.0169808,VALID,19.4592,VALID,347,VALID,0,
2008-06-03, 03:47:00,VALID,916.047,VALID,0,VALID,100,VALID,-0.0509425,VALID,19.4782,INVALID,360,VALID,0,